Regional Weather Roundup
Issued by NWS Green Bay, WI

Home | Current Version | Previous Version | Text Only | Print | Product List | Glossary On
Versions: 1 2 3 4 5 6 7 8 9 10 11 12 13 14 15 16 17 18 19 20 21 22 23 24 25 26 27 28 29 30 31 32 33 34 35 36 37 38 39 40 41 42 43 44 45 46 47 48 49 50
105
ASUS43 KGRB 021811
RWRGRB

NORTH-CENTRAL AND NORTHEAST WISCONSIN REGIONAL WEATHER ROUNDUP
NATIONAL WEATHER SERVICE GREEN BAY WI
1200 PM CST FRI DEC 02 2016

WIZ005-009-010>012-018-019-021900-
NORTH CENTRAL WISCONSIN

CITY           SKY/WX    TMP DP  RH WIND       PRES   REMARKS
IRONWOOD       CLOUDY    29  26  89 W12       30.15R FOG
MANITOWISH WTR CLOUDY    28  28  99 NW7       30.12S
ARBOR VITAE    CLOUDY    32  28  84 NW6       30.12S
EAGLE RIVER    CLOUDY    29  27  93 NW7       30.11R FOG
LAND O LAKES   CLOUDY    30  28  93 NW3       30.11S
RHINELANDER    CLOUDY    30  26  85 NW7       30.13R
PHILLIPS       CLOUDY    29  24  82 NW3       30.14S
ANTIGO         CLOUDY    30  25  80 W10       30.13R
TOMAHAWK       CLOUDY    30  24  75 NW7       30.14R
MERRILL        CLOUDY    31  25  76 W6        30.15S
$$

WIZ013-073-021900-
NORTHEAST WISCONSIN

CITY           SKY/WX    TMP DP  RH WIND       PRES   REMARKS
IRON MOUNTAIN  CLOUDY    34  25  69 NW13      30.08R
MARINETTE      CLOUDY    35  26  69 VRB6      30.13R
OCONTO         CLOUDY    35  26  68 NW6       30.13R
$$

WIZ017-030-035>037-045-021900-
CENTRAL WISCONSIN

CITY           SKY/WX    TMP DP  RH WIND       PRES   REMARKS
MEDFORD        CLOUDY    29  23  77 NW6       30.15S
WAUSAU         CLOUDY    31  24  75 W9        30.14R
MOSINEE        CLOUDY    30  25  80 W9        30.16S
MARSHFIELD     CLOUDY    30  22  72 NW12      30.16R
WISC RAPIDS    CLOUDY    32  23  69 NW7       30.18R
STEVENS POINT  CLOUDY    30  22  73 NW5       30.17R
WAUPACA        CLOUDY    35  24  66 CALM      30.17S
SHAWANO        CLOUDY    37  27  67 NW7       30.14S
CLINTONVILLE   CLOUDY    34  25  69 NW13      30.15R
WAUTOMA        CLOUDY    33  23  66 NW10      30.18S
$$

WIZ038-039-048-051-021900-
FOX VALLEY

CITY           SKY/WX    TMP DP  RH WIND       PRES   REMARKS
NWS GREEN BAY  CLOUDY    36  27  69 W10       30.14S
APPLETON       CLOUDY    34  23  64 W9        30.13S
OSHKOSH        CLOUDY    33  24  69 NW12      30.16R
FOND DU LAC    CLOUDY    33  22  63 W13       30.16R
$$

WIZ022-050-052-021900-
EAST CENTRAL WISCONSIN

CITY           SKY/WX    TMP DP  RH WIND       PRES   REMARKS
EPHRAIM        CLOUDY    35  28  76 NW10      30.10R
WASHINGTON ISL CLOUDY    35  28  76 NW10G18   30.08S
STURGEON BAY   CLOUDY    35  26  69 NW9       30.12R
MANITOWOC      CLOUDY    35  25  66 NW9       30.15R
SHEBOYGAN      CLOUDY    34  24  67 NW10      30.15R
$$

LMZ563-521-522-541>543-021900-
LAKESHORE

STATION/POSITION TIME  TEMP    WIND        PRES    VSBY  WAVE
                       AIR SEA DIR/SP/G                  HT/PER
                 (UTC) (F)     (DEG/KT/KT) (MB)    (MI)  (FT/S)
SHEBOYGAN LKSHOR 1800   34     330/  9/ 12 1021.3R
KEWAUNEE LKSHORE 1742   35     310/  8/ 11 1019.6R
ALGOMA MARINA    1751          320/ 12/ 15   N/A
NORTHPORT PIER   1730   36     280/ 11/ 17 1019.0R
SISTER BAY LKSHO 1738   35     310/ 18/ 22   N/A
CHAMBERS ISLAND  1730   36     290/  6/  9 1019.0S
MENOMINEE LKSHOR 1742   35     280/  9/ 12 1019.0R
$$




USA.gov is the U.S. government's official web portal to all federal, state and local government web resources and services.